Weather Service Report


903 
ASUS44 KFWD 012115
RWRTX 
NORTH TEXAS HOURLY WEATHER ROUNDUP
NATIONAL WEATHER SERVICE FORT WORTH TX
400 PM CDT WED JUL 01 2015

NOTE: "FAIR" INDICATES FEW OR NO CLOUDS BELOW 12,000 FEET WITH NO
SIGNIFICANT WEATHER AND/OR OBSTRUCTIONS TO VISIBILITY.

TXZ118-119-012200-
DALLAS/FORT WORTH METROPLEX
  
CITY           SKY/WX    TMP DP  RH WIND       PRES   REMARKS
DFW AIRPORT    PTSUNNY   93  68  43 S21       29.95F HX  97           
DALLAS LOVE    PTSUNNY   94  68  42 SW13G21   29.95F HX  98           
FTW MEACHAM    MOSUNNY   94  68  42 S12G24    29.95F HX  98           
DAL-EXECUTIVE  MOSUNNY   90  70  51 S9G21     29.97F HX  95           
FTW-ALLIANCE   MOSUNNY   92  69  47 SW13G20   29.95F HX  97           
FTW-NAS-JRB    PTSUNNY   93  69  45 S20G26    29.96F HX  98           
FTW-SPINKS     SUNNY     93  66  40 S13G18    29.98F HX  96           
ARLINGTON      MOSUNNY   93  68  43 S12G22    29.96F HX  97           
GRAND PRAIRIE  SUNNY     93  70  46 S12       29.98F HX  99           
ADDISON        MOSUNNY   91  66  43 SW14G25   29.97F HX  94           
LANCASTER      PTSUNNY   91  68  46 S14G20    29.98  HX  95           
$$

TXZ091>094-102>105-117-120-121-131>134-012200-
NORTH CENTRAL TEXAS
  
CITY           SKY/WX    TMP DP  RH WIND       PRES   REMARKS
SHRMAN/DENISON MOSUNNY   91  73  53 S17G24    29.95F HX  99           
GAINESVILLE    SUNNY     91  69  49 S16G23    29.96F HX  95           
BOWIE          MOSUNNY   87  66  50 S14G25    29.96S                  
BRIDGEPORT     SUNNY     92  69  46 SW14G20   29.97F HX  97           
DECATUR        SUNNY     91  65  42 SW13G20   29.97F HX  94           
DENTON         SUNNY     92  69  47 SW21G28   29.94F HX  97           
MCKINNEY       SUNNY     93  67  42 SW17G28   29.95F HX  96           
GREENVILLE     MOSUNNY   91  68  46 S18G26    29.97F HX  95           
ROCKWALL       MOSUNNY   91  72  52 SW13G25   29.96F HX  98           
TERRELL        MOSUNNY   89  71  55 S14       29.98F HX  95           
WAXAHACHIE     PTSUNNY   89  71  54 S14       29.99F HX  95           
CLEBURNE       MOSUNNY   93  72  49 S14       29.99F HX 100           
GRANBURY       SUNNY     94  66  39 S12G21    29.97F HX  97           
$$

TXZ083>090-098>101-113>116-127>130-139>142-154-155-012200-
WESTERN NORTH TEXAS
  
CITY           SKY/WX    TMP DP  RH WIND       PRES   REMARKS
WICHITA FALLS  MOSUNNY   94  69  44 S21G29    29.91F HX  99           
WF-KICKAPOO    SUNNY     95  65  36 S18G24    29.93F HX  97           
VERNON         SUNNY     99  56  23 SW15G23   29.91F HX  97           
ABILENE        MOSUNNY   90  65  43 S15G25    30.00F HX  92           
ABILENE-DYESS  MOSUNNY   90  68  48 SW14      29.98F HX  93           
BRECKENRIDGE   PTSUNNY   93  62  35 S14G22    29.97F HX  94           
GRAHAM         SUNNY     93  69  45 S14G22    29.95F HX  97           
MINERAL WELLS  MOSUNNY   91  68  46 S12G24    29.95F HX  95           
STEPHENVILLE   MOSUNNY   89  65  44 SW10      30.02F HX  91           
COMANCHE       MOSUNNY   91  67  45 SW10G24   30.00F HX  94           
BROWNWOOD      MOSUNNY   91  64  40 S13G23    30.00F HX  93           
COLEMAN        MOSUNNY   91  67  45 S12G21    30.01F HX  93           
BRADY          MOSUNNY   90  63  40 N12       30.02F HX  90           
$$

TXZ143>147-156>162-174-175-012200-
CENTRAL TEXAS
  
CITY           SKY/WX    TMP DP  RH WIND       PRES   REMARKS
WACO           MOSUNNY   91  70  49 S13       29.98F HX  96           
WACO-TSTC      MOSUNNY   91  70  49 SW14      29.99F HX  97           
WACO-MCGREGOR  MOSUNNY   91  72  52 S14G21    29.99F HX  98           
HILLSBORO      PTSUNNY   89  69  52 S10       29.99F HX  93           
CORSICANA      PTSUNNY   91  72  53 SW10G22   30.00F HX  98           
MEXIA          PTSUNNY   88  73  60 SE10G22   29.99F HX  96           
HEARNE         PTSUNNY   83  75  77 S9        30.04S HX  91           
CAMERON        PTSUNNY   81  73  76 S8        30.03S                  
TEMPLE         PTSUNNY   86  70  58 SE21      30.00F HX  90           
KILLEEN        MOSUNNY   87  69  55 S17       30.00F HX  91           
KILLEEN-SKYLRK PTSUNNY   91  70  49 S20       30.00F HX  97           
FORT HOOD      MOSUNNY   90  70  50 S21       29.99F HX  95           
GATESVILLE     MOSUNNY   91  70  49 S10       30.01F HX  97           
HAMILTON       MOSUNNY   90  66  43 S16       30.02F HX  92           
$$

TXZ095>097-106>112-122>126-135>138-148>153-164>167-012200-
EAST TEXAS
  
CITY           SKY/WX    TMP DP  RH WIND       PRES   REMARKS
PARIS          SUNNY     91  66  43 SW20G26   29.95F HX  94           
SULPHUR SPRNGS MOSUNNY   91  69  48 SW17G25   29.99F HX  95           
MOUNT PLEASANT MOSUNNY   91  69  47 SW12      29.98F HX  95           
GILMER         PTSUNNY   88  71  56 S12G17    29.99F HX  93           
MINEOLA        PTSUNNY   90  70  51 SW10G18   29.99F HX  95           
TYLER          MOSUNNY   90  71  53 S13       30.00F HX  96           
LONGVIEW       MOSUNNY   93  73  52 SW13      29.99F HX 102           
MARSHALL       MOSUNNY   94  73  51 SW13      30.01F HX 102           
ATHENS         MOSUNNY   88  70  55 SW6       29.99S HX  92           
PALESTINE      MOSUNNY   92  71  50 S12       30.01F HX  99           
JACKSONVILLE   MOSUNNY   90  70  51 SW7       30.04F HX  96           
HENDERSON      MOSUNNY   87  71  57 S9        30.02F HX  93           
CENTER         FAIR      88  72  58 S7        30.02S HX  94           
NACOGDOCHES    MOSUNNY   90  73  58 SW17      30.02S HX  98           
LUFKIN         PTSUNNY   88  70  55 S9        30.04S HX  93           
$$

SUPPLEMENTAL OBSERVATIONS (CENTRAL)
  
CITY           SKY/WX    TMP DP  RH WIND       PRES   REMARKS
LAKE TEXOMA      N/A     90  70  51 SW21        N/A  HX  95           
CADDO GRASSLND   N/A     90  72  55 S13         N/A  HX  96           
PAT MAYSE LAKE   N/A     88  72  58 S17         N/A  HX  94           
GREENVILLE       N/A     90  68  48 SW12G23     N/A  HX  93           
CEDAR HILL       N/A     93  66  40 S9G17       N/A  HX  96           
ATHENS           N/A     91  70  49 S8          N/A  HX  97           
LAKE LIMESTONE   N/A     88  73  62 SW14G23     N/A  HX  96           
MCGREGOR         N/A     91  70  49 S14         N/A  HX  97           
TEMPLE           N/A     88  73  62 S14G22      N/A  HX  96           
$$

SUPPLEMENTAL OBSERVATIONS (WEST)
  
CITY           SKY/WX    TMP DP  RH WIND       PRES   REMARKS
MILLERS CREEK    N/A     93  66  40 SW15        N/A  HX  96           
POSSUM KINGDOM   N/A     93  66  40 S12G20      N/A  HX  96           
GRANBURY         N/A     95  66  38 S15G22      N/A  HX  98           
COMANCHE         N/A     90  64  43 S15G22      N/A  HX  91           
HAMBY            N/A     93  64  38 SW17G24     N/A  HX  95           
IVIE RESERVOIR   N/A     93  64  38 S13G21      N/A  HX  95           
COLORADO BEND    N/A     91  66  43 SW10        N/A  HX  94           
$$

SUPPLEMENTAL OBSERVATIONS (EAST)
  
CITY           SKY/WX    TMP DP  RH WIND       PRES   REMARKS
CLARKSVILLE      N/A     91  70  49 SW8G22      N/A  HX  97           
TEXARKANA        N/A     91  72  52 SW7         N/A  HX  98           
LINDEN           N/A     91  70  49 SW6G15      N/A  HX  97           
CADDO LAKE       N/A     91  73  55 SW6         N/A  HX 100           
GILMER           N/A     90  68  48 SW10        N/A  HX  93           
HENDERSON        N/A     90  72  55 SW10        N/A  HX  96           
LUFKIN           N/A     84  70  61 MISG        N/A                   
N SABINE NF      N/A     95  77  55 MISG        N/A  HX 109           
S SABINE NF      N/A     79  70  73 CALM        N/A                   
$$

SUPPLEMENTAL OBSERVATIONS ARE A COLLECTION OF AUTOMATED INSTRUMENTS
THAT ARE MAINTAINED BY A VARIETY OF FEDERAL AND STATE AGENCIES. 
CERTAIN ELEMENTS...SUCH AS HUMIDITY VALUES AND SUSTAINED WIND 
SPEEDS...MAY BE APPROXIMATED.


Return to Home page


Western Regional Climate Center, wrcc@dri.edu